Location: Aufkirchen
(47.9603°N, 11.3653°E)
Time: 10:33:19
(UTC+01:00)

Tiros 1 - Pass Details

Date: 28 November 2020
Orbit: 630 x 663 km, 48.4° (Epoch: 21 January)

Event Time Altitude Azimuth Distance (km) Brightness Sun altitude
Rises 15:45:06 0° 223° (SW) 2,983 13.1 4.6°
Reaches altitude 10° 15:47:35 10° 215° (SW) 2,073 11.6 4.3°
Maximum altitude 15:51:58 37° 149° (SSE) 1,027 8.4 3.7°
Drops below altitude 10° 15:56:22 10° 82° (E) 2,071 9.2 3.1°
Sets 15:58:50 0° 74° (ENE) 2,981 10.0 2.8°
